Time,TemperatureF,DewpointF,PressureIn,WindDirection,WindDirectionDegrees,WindSpeedMPH,WindSpeedGustMPH,Humidity,HourlyPrecipIn,Conditions,Clouds,dailyrainin,SoftwareType,DateUTC
2013-05-10 00:23:00,35.1,32.5,29.97,ENE,67,2.7,-999.0,90,-99.99,,,0.00,Acu-Link.com,2013-05-10 06:23:00,
2013-05-10 00:39:00,35.1,33.8,29.97,NNW,337,2.7,-999.0,95,-99.99,,,0.00,Acu-Link.com,2013-05-10 06:39:00,
2013-05-10 00:55:00,34.9,34.1,29.98,NNW,337,1.7,-999.0,97,-99.99,,,0.00,Acu-Link.com,2013-05-10 06:55:00,
2013-05-10 01:48:00,34.9,34.4,29.98,WNW,292,0.0,-999.0,98,-99.99,,,0.00,Acu-Link.com,2013-05-10 07:48:00,
2013-05-10 02:48:00,30.0,29.5,29.97,East,90,0.0,-999.0,98,-99.99,,,0.00,Acu-Link.com,2013-05-10 08:48:00,
2013-05-10 08:49:00,53.8,38.5,30.01,ENE,67,2.7,-999.0,56,-99.99,,,0.00,Acu-Link.com,2013-05-10 14:49:00,
2013-05-10 09:55:00,45.5,35.6,29.99,ESE,112,3.2,-999.0,68,-99.99,,,0.00,Acu-Link.com,2013-05-10 15:55:00,
2013-05-10 10:12:00,50.0,36.2,29.98,West,270,5.8,-999.0,59,-99.99,,,0.00,Acu-Link.com,2013-05-10 16:12:00,
2013-05-10 10:27:00,50.2,36.0,29.98,SSW,202,4.7,-999.0,58,-99.99,,,0.00,Acu-Link.com,2013-05-10 16:27:00,
2013-05-10 10:43:00,53.1,37.8,29.98,South,180,3.7,-999.0,56,-99.99,,,0.00,Acu-Link.com,2013-05-10 16:43:00,
2013-05-10 10:59:00,54.3,38.5,29.99,SSE,157,3.7,-999.0,55,-99.99,,,0.00,Acu-Link.com,2013-05-10 16:59:00,
2013-05-10 11:18:00,55.6,38.7,29.98,SSE,157,4.7,-999.0,53,-99.99,,,0.00,Acu-Link.com,2013-05-10 17:18:00,
2013-05-10 13:32:00,64.0,41.1,29.93,NNE,22,13.5,-999.0,43,-99.99,,,0.00,Acu-Link.com,2013-05-10 19:32:00,
2013-05-10 17:07:00,59.2,36.1,29.94,ENE,67,12.5,-999.0,42,-99.99,,,0.00,Acu-Link.com,2013-05-10 23:07:00,
2013-05-10 17:22:00,58.3,37.1,29.95,ENE,67,11.4,-999.0,45,-99.99,,,0.00,Acu-Link.com,2013-05-10 23:22:00,
2013-05-10 17:37:00,54.3,37.1,29.95,East,90,10.9,-999.0,52,-99.99,,,0.00,Acu-Link.com,2013-05-10 23:37:00,
2013-05-10 17:52:00,55.4,37.6,29.95,NE,45,7.3,-999.0,51,-99.99,,,0.00,Acu-Link.com,2013-05-10 23:52:00,
2013-05-10 18:07:00,52.5,37.3,29.96,NE,45,7.8,-999.0,56,-99.99,,,0.00,Acu-Link.com,2013-05-11 00:07:00,
2013-05-10 18:23:00,51.4,34.8,29.98,SSE,157,1.7,-999.0,53,-99.99,,,0.00,Acu-Link.com,2013-05-11 00:23:00,
2013-05-10 18:38:00,50.9,34.9,29.97,SSW,202,2.7,-999.0,54,-99.99,,,0.00,Acu-Link.com,2013-05-11 00:38:00,
2013-05-10 18:53:00,50.4,36.6,29.98,SSW,202,3.2,-999.0,59,-99.99,,,0.00,Acu-Link.com,2013-05-11 00:53:00,
2013-05-10 19:08:00,50.2,36.4,29.98,WSW,247,2.2,-999.0,59,-99.99,,,0.00,Acu-Link.com,2013-05-11 01:08:00,
2013-05-10 19:23:00,49.1,35.8,29.98,West,270,1.1,-999.0,60,-99.99,,,0.00,Acu-Link.com,2013-05-11 01:23:00,
2013-05-10 19:39:00,47.8,35.4,29.99,WSW,247,0.0,-999.0,62,-99.99,,,0.00,Acu-Link.com,2013-05-11 01:39:00,
2013-05-10 19:54:00,46.8,34.9,30.00,SW,225,2.2,-999.0,63,-99.99,,,0.00,Acu-Link.com,2013-05-11 01:54:00,
2013-05-10 20:09:00,44.4,35.6,30.00,SW,225,0.0,-999.0,71,-99.99,,,0.00,Acu-Link.com,2013-05-11 02:09:00,
2013-05-10 20:25:00,43.0,35.3,30.01,SW,225,0.0,-999.0,74,-99.99,,,0.00,Acu-Link.com,2013-05-11 02:25:00,
2013-05-10 20:40:00,41.9,35.9,30.01,SW,225,1.7,-999.0,79,-99.99,,,0.00,Acu-Link.com,2013-05-11 02:40:00,
2013-05-10 20:55:00,41.7,36.3,30.02,WSW,247,2.2,-999.0,81,-99.99,,,0.00,Acu-Link.com,2013-05-11 02:55:00,
2013-05-10 21:11:00,41.9,35.9,30.05,NNE,22,3.7,-999.0,79,-99.99,,,0.00,Acu-Link.com,2013-05-11 03:11:00,
2013-05-10 21:26:00,41.7,35.4,30.06,ESE,112,1.7,-999.0,78,-99.99,,,0.00,Acu-Link.com,2013-05-11 03:26:00,
2013-05-10 21:42:00,39.0,36.0,30.06,NE,45,2.2,-999.0,89,-99.99,,,0.00,Acu-Link.com,2013-05-11 03:42:00,
2013-05-10 21:58:00,38.5,37.7,30.07,NNW,337,2.2,-999.0,97,-99.99,,,0.00,Acu-Link.com,2013-05-11 03:58:00,
2013-05-10 22:15:00,37.0,36.5,30.08,SSW,202,1.7,-999.0,98,-99.99,,,0.00,Acu-Link.com,2013-05-11 04:15:00,
2013-05-10 22:30:00,35.4,34.9,30.08,East,90,0.0,-999.0,98,-99.99,,,0.00,Acu-Link.com,2013-05-11 04:30:00,
2013-05-10 22:46:00,34.2,33.7,30.10,NNE,22,2.2,-999.0,98,-99.99,,,0.00,Acu-Link.com,2013-05-11 04:46:00,
2013-05-10 23:01:00,35.6,35.1,30.09,NE,45,0.0,-999.0,98,-99.99,,,0.00,Acu-Link.com,2013-05-11 05:01:00,
2013-05-10 23:16:00,36.7,36.2,30.11,SSW,202,0.0,-999.0,98,-99.99,,,0.00,Acu-Link.com,2013-05-11 05:16:00,
2013-05-10 23:32:00,35.8,35.3,30.10,WNW,292,0.0,-999.0,98,-99.99,,,0.00,Acu-Link.com,2013-05-11 05:32:00,
2013-05-10 23:47:00,34.9,34.4,30.12,SW,225,2.7,-999.0,98,-99.99,,,0.00,Acu-Link.com,2013-05-11 05:47:00,